Location: Sweet Grass
(48.9965°N, 111.9649°W)
Time: 12:56:41
(UTC+00:00)

Envisat - Pass Details

Date: 07 December 2022
Orbit: 763 x 765 km, 98.2° (Epoch: 06 February)

Event Time Altitude Azimuth Distance (km) Brightness Sun altitude
Rises 13:29:57 0° 2° (N) 3,246 6.1 -15.2°
Reaches altitude 10° 13:33:02 10° 342° (NNW) 2,315 5.2 -14.7°
Enters shadow 13:34:34 15° 326° (NW) 2,012 4.7 -14.5°
